Time,TemperatureF,DewpointF,PressureIn,WindDirection,WindDirectionDegrees,WindSpeedMPH,WindSpeedGustMPH,Humidity,HourlyPrecipIn,Conditions,Clouds,dailyrainin,SoftwareType,DateUTC
2013-06-14 00:03:00,82.2,43.9,29.67,WNW,285,4.0,6.0,26,0.00,,,0.00,LWC V2.00 B727,2013-06-14 07:03:00,
2013-06-14 00:08:00,81.4,43.2,29.67,WSW,252,5.0,8.0,26,0.00,,,0.00,LWC V2.00 B727,2013-06-14 07:08:00,
2013-06-14 00:13:00,80.9,43.8,29.67,West,261,6.0,9.0,27,0.00,,,0.00,LWC V2.00 B727,2013-06-14 07:13:00,
2013-06-14 00:18:00,80.7,44.5,29.67,WSW,256,5.0,7.0,28,0.00,,,0.00,LWC V2.00 B727,2013-06-14 07:18:00,
2013-06-14 00:23:00,80.3,44.2,29.67,WSW,251,6.0,7.0,28,0.00,,,0.00,LWC V2.00 B727,2013-06-14 07:23:00,
2013-06-14 00:28:00,80.1,44.0,29.67,WSW,248,6.0,7.0,28,0.00,,,0.00,LWC V2.00 B727,2013-06-14 07:28:00,
2013-06-14 00:33:00,79.9,43.9,29.67,WSW,239,5.0,7.0,28,0.00,,,0.00,LWC V2.00 B727,2013-06-14 07:33:00,
2013-06-14 00:38:00,79.9,43.9,29.66,WSW,243,5.0,7.0,28,0.00,,,0.00,LWC V2.00 B727,2013-06-14 07:38:00,
2013-06-14 00:43:00,79.8,43.8,29.66,WSW,243,5.0,6.0,28,0.00,,,0.00,LWC V2.00 B727,2013-06-14 07:43:00,
2013-06-14 00:48:00,79.8,44.7,29.66,WSW,239,5.0,6.0,29,0.00,,,0.00,LWC V2.00 B727,2013-06-14 07:48:00,
2013-06-14 00:53:00,79.8,44.7,29.66,WSW,239,4.0,6.0,29,0.00,,,0.00,LWC V2.00 B727,2013-06-14 07:53:00,
2013-06-14 00:58:00,79.8,44.7,29.66,WSW,243,5.0,6.0,29,0.00,,,0.00,LWC V2.00 B727,2013-06-14 07:58:00,
2013-06-14 01:03:00,79.8,44.7,29.66,WSW,243,5.0,6.0,29,0.00,,,0.00,LWC V2.00 B727,2013-06-14 08:03:00,
2013-06-14 01:08:00,79.9,44.8,29.66,WSW,243,4.0,5.0,29,0.00,,,0.00,LWC V2.00 B727,2013-06-14 08:08:00,
2013-06-14 01:13:00,79.9,44.8,29.66,WSW,243,5.0,5.0,29,0.00,,,0.00,LWC V2.00 B727,2013-06-14 08:13:00,
2013-06-14 01:18:00,79.9,44.8,29.66,SW,231,0.0,4.0,29,0.00,,,0.00,LWC V2.00 B727,2013-06-14 08:18:00,
2013-06-14 01:23:00,79.8,44.7,29.65,SW,230,0.0,0.0,29,0.00,,,0.00,LWC V2.00 B727,2013-06-14 08:23:00,
2013-06-14 01:28:00,79.8,44.7,29.65,SW,230,0.0,0.0,29,0.00,,,0.00,LWC V2.00 B727,2013-06-14 08:28:00,
2013-06-14 01:33:00,79.8,44.7,29.65,SW,230,4.0,5.0,29,0.00,,,0.00,LWC V2.00 B727,2013-06-14 08:33:00,
2013-06-14 01:38:00,79.8,44.7,29.65,SW,230,2.0,3.0,29,0.00,,,0.00,LWC V2.00 B727,2013-06-14 08:38:00,
2013-06-14 01:43:00,79.8,44.7,29.65,SW,230,4.0,5.0,29,0.00,,,0.00,LWC V2.00 B727,2013-06-14 08:43:00,
2013-06-14 01:48:00,79.8,44.7,29.65,SW,230,3.0,4.0,29,0.00,,,0.00,LWC V2.00 B727,2013-06-14 08:48:00,
2013-06-14 01:53:00,79.8,44.7,29.65,SW,230,4.0,5.0,29,0.00,,,0.00,LWC V2.00 B727,2013-06-14 08:53:00,
2013-06-14 01:58:00,79.8,44.7,29.65,SW,230,5.0,5.0,29,0.00,,,0.00,LWC V2.00 B727,2013-06-14 08:58:00,
2013-06-14 02:03:00,79.8,43.8,29.65,SW,233,5.0,5.0,28,0.00,,,0.00,LWC V2.00 B727,2013-06-14 09:03:00,
2013-06-14 02:08:00,79.9,43.9,29.64,WSW,240,5.0,6.0,28,0.00,,,0.00,LWC V2.00 B727,2013-06-14 09:08:00,
2013-06-14 02:13:00,79.8,43.8,29.65,WSW,240,5.0,6.0,28,0.00,,,0.00,LWC V2.00 B727,2013-06-14 09:13:00,
2013-06-14 02:18:00,79.8,43.8,29.65,WSW,241,6.0,7.0,28,0.00,,,0.00,LWC V2.00 B727,2013-06-14 09:18:00,
2013-06-14 02:23:00,79.8,43.8,29.65,WSW,240,5.0,6.0,28,0.00,,,0.00,LWC V2.00 B727,2013-06-14 09:23:00,
2013-06-14 02:28:00,79.6,43.6,29.65,SW,232,4.0,5.0,28,0.00,,,0.00,LWC V2.00 B727,2013-06-14 09:28:00,
2013-06-14 02:33:00,79.4,44.3,29.65,SW,232,6.0,6.0,29,0.00,,,0.00,LWC V2.00 B727,2013-06-14 09:33:00,
2013-06-14 02:38:00,79.2,44.2,29.65,WSW,238,7.0,8.0,29,0.00,,,0.00,LWC V2.00 B727,2013-06-14 09:38:00,
2013-06-14 02:43:00,79.2,45.1,29.65,WSW,240,6.0,6.0,30,0.00,,,0.00,LWC V2.00 B727,2013-06-14 09:43:00,
2013-06-14 02:48:00,79.0,44.9,29.65,WSW,245,6.0,6.0,30,0.00,,,0.00,LWC V2.00 B727,2013-06-14 09:48:00,
2013-06-14 02:53:00,79.0,45.8,29.65,WSW,245,6.0,6.0,31,0.00,,,0.00,LWC V2.00 B727,2013-06-14 09:53:00,
2013-06-14 02:58:00,78.8,45.6,29.65,WSW,245,6.0,7.0,31,0.00,,,0.00,LWC V2.00 B727,2013-06-14 09:58:00,
2013-06-14 03:03:00,78.6,45.4,29.65,WSW,245,5.0,6.0,31,0.00,,,0.00,LWC V2.00 B727,2013-06-14 10:03:00,
2013-06-14 03:08:00,78.6,46.3,29.65,WSW,256,7.0,7.0,32,0.00,,,0.00,LWC V2.00 B727,2013-06-14 10:08:00,
2013-06-14 03:13:00,78.5,47.0,29.65,WSW,257,5.0,7.0,33,0.00,,,0.00,LWC V2.00 B727,2013-06-14 10:13:00,
2013-06-14 03:18:00,78.5,47.0,29.65,WSW,249,6.0,7.0,33,0.00,,,0.00,LWC V2.00 B727,2013-06-14 10:18:00,
2013-06-14 03:23:00,78.5,47.8,29.65,WSW,245,4.0,5.0,34,0.00,,,0.00,LWC V2.00 B727,2013-06-14 10:23:00,
2013-06-14 03:28:00,78.5,47.0,29.65,WSW,245,5.0,6.0,33,0.00,,,0.00,LWC V2.00 B727,2013-06-14 10:28:00,
2013-06-14 03:33:00,78.5,47.0,29.65,WSW,245,5.0,6.0,33,0.00,,,0.00,LWC V2.00 B727,2013-06-14 10:33:00,
2013-06-14 03:38:00,78.5,47.8,29.65,WSW,245,4.0,5.0,34,0.00,,,0.00,LWC V2.00 B727,2013-06-14 10:38:00,
2013-06-14 03:43:00,78.6,47.1,29.65,WSW,245,4.0,4.0,33,0.00,,,0.00,LWC V2.00 B727,2013-06-14 10:43:00,
2013-06-14 03:48:00,78.6,47.1,29.65,WSW,245,0.0,1.0,33,0.00,,,0.00,LWC V2.00 B727,2013-06-14 10:48:00,
2013-06-14 03:53:00,78.6,47.1,29.65,WSW,245,0.0,0.0,33,0.00,,,0.00,LWC V2.00 B727,2013-06-14 10:53:00,
2013-06-14 03:58:00,78.8,47.2,29.65,WSW,245,0.0,0.0,33,0.00,,,0.00,LWC V2.00 B727,2013-06-14 10:58:00,
2013-06-14 04:03:00,78.8,47.2,29.65,WSW,245,0.0,0.0,33,0.00,,,0.00,LWC V2.00 B727,2013-06-14 11:03:00,
2013-06-14 04:08:00,78.8,47.2,29.65,WSW,245,0.0,0.0,33,0.00,,,0.00,LWC V2.00 B727,2013-06-14 11:08:00,
2013-06-14 04:13:00,79.0,47.4,29.65,WSW,245,0.0,0.0,33,0.00,,,0.00,LWC V2.00 B727,2013-06-14 11:13:00,
2013-06-14 04:18:00,79.0,47.4,29.65,WSW,245,0.0,0.0,33,0.00,,,0.00,LWC V2.00 B727,2013-06-14 11:18:00,
2013-06-14 04:23:00,79.0,47.4,29.65,WSW,245,0.0,0.0,33,0.00,,,0.00,LWC V2.00 B727,2013-06-14 11:23:00,
2013-06-14 04:28:00,79.0,47.4,29.65,WSW,245,0.0,0.0,33,0.00,,,0.00,LWC V2.00 B727,2013-06-14 11:28:00,
2013-06-14 04:33:00,79.0,47.4,29.65,WSW,245,0.0,0.0,33,0.00,,,0.00,LWC V2.00 B727,2013-06-14 11:33:00,
2013-06-14 04:38:00,79.0,47.4,29.65,WSW,245,0.0,0.0,33,0.00,,,0.00,LWC V2.00 B727,2013-06-14 11:38:00,
2013-06-14 04:43:00,78.8,47.2,29.66,WSW,245,0.0,0.0,33,0.00,,,0.00,LWC V2.00 B727,2013-06-14 11:43:00,
2013-06-14 04:48:00,78.8,47.2,29.66,WSW,245,0.0,0.0,33,0.00,,,0.00,LWC V2.00 B727,2013-06-14 11:48:00,
2013-06-14 04:53:00,78.6,47.1,29.66,WSW,245,0.0,0.0,33,0.00,,,0.00,LWC V2.00 B727,2013-06-14 11:53:00,
2013-06-14 04:58:00,78.5,47.0,29.66,WSW,245,0.0,0.0,33,0.00,,,0.00,LWC V2.00 B727,2013-06-14 11:58:00,
2013-06-14 05:03:00,78.3,47.6,29.66,WSW,245,0.0,0.0,34,0.00,,,0.00,LWC V2.00 B727,2013-06-14 12:03:00,
2013-06-14 05:08:00,78.3,48.4,29.66,WSW,245,0.0,0.0,35,0.00,,,0.00,LWC V2.00 B727,2013-06-14 12:08:00,
2013-06-14 05:13:00,78.1,48.9,29.66,WSW,245,0.0,0.0,36,0.00,,,0.00,LWC V2.00 B727,2013-06-14 12:13:00,
2013-06-14 05:18:00,78.1,48.2,29.66,WSW,245,0.0,0.0,35,0.00,,,0.00,LWC V2.00 B727,2013-06-14 12:18:00,
2013-06-14 05:23:00,77.7,47.1,29.66,WSW,245,0.0,0.0,34,0.00,,,0.00,LWC V2.00 B727,2013-06-14 12:23:00,
2013-06-14 05:28:00,77.4,47.6,29.66,WSW,245,0.0,0.0,35,0.00,,,0.00,LWC V2.00 B727,2013-06-14 12:28:00,
2013-06-14 05:33:00,77.2,47.4,29.67,WSW,245,0.0,0.0,35,0.00,,,0.00,LWC V2.00 B727,2013-06-14 12:33:00,
2013-06-14 05:38:00,77.2,47.4,29.67,WSW,245,0.0,0.0,35,0.00,,,0.00,LWC V2.00 B727,2013-06-14 12:38:00,
2013-06-14 05:43:00,77.2,47.4,29.67,WSW,245,0.0,0.0,35,0.00,,,0.00,LWC V2.00 B727,2013-06-14 12:43:00,
2013-06-14 05:48:00,77.4,47.6,29.67,WSW,245,0.0,0.0,35,0.00,,,0.00,LWC V2.00 B727,2013-06-14 12:48:00,
2013-06-14 05:53:00,77.6,47.8,29.67,WSW,245,0.0,0.0,35,0.00,,,0.00,LWC V2.00 B727,2013-06-14 12:53:00,
2013-06-14 05:58:00,77.7,47.8,29.67,WSW,245,0.0,0.0,35,0.00,,,0.00,LWC V2.00 B727,2013-06-14 12:58:00,
2013-06-14 06:03:00,77.9,48.0,29.67,WSW,245,0.0,0.0,35,0.00,,,0.00,LWC V2.00 B727,2013-06-14 13:03:00,
2013-06-14 06:08:00,78.1,48.2,29.67,WSW,245,0.0,0.0,35,0.00,,,0.00,LWC V2.00 B727,2013-06-14 13:08:00,
2013-06-14 06:13:00,78.3,48.4,29.67,WSW,245,0.0,0.0,35,0.00,,,0.00,LWC V2.00 B727,2013-06-14 13:13:00,
2013-06-14 06:18:00,78.3,48.4,29.67,SSW,197,0.0,0.0,35,0.00,,,0.00,LWC V2.00 B727,2013-06-14 13:18:00,
2013-06-14 06:23:00,78.6,48.6,29.67,SSW,197,0.0,0.0,35,0.00,,,0.00,LWC V2.00 B727,2013-06-14 13:23:00,
2013-06-14 06:28:00,78.8,48.8,29.67,SSW,197,0.0,0.0,35,0.00,,,0.00,LWC V2.00 B727,2013-06-14 13:28:00,
2013-06-14 06:33:00,79.2,49.2,29.67,SSW,197,0.0,0.0,35,0.00,,,0.00,LWC V2.00 B727,2013-06-14 13:33:00,
2013-06-14 06:38:00,79.8,49.7,29.67,SSW,197,0.0,0.0,35,0.00,,,0.00,LWC V2.00 B727,2013-06-14 13:38:00,
2013-06-14 06:43:00,80.1,49.2,29.66,SSW,197,0.0,0.0,34,0.00,,,0.00,LWC V2.00 B727,2013-06-14 13:43:00,
2013-06-14 06:48:00,80.5,48.7,29.67,SSW,198,0.0,0.0,33,0.00,,,0.00,LWC V2.00 B727,2013-06-14 13:48:00,
2013-06-14 06:53:00,80.9,48.2,29.67,SSW,198,0.0,0.0,32,0.00,,,0.00,LWC V2.00 B727,2013-06-14 13:53:00,
2013-06-14 06:58:00,81.4,47.8,29.68,South,191,0.0,1.0,31,0.00,,,0.00,LWC V2.00 B727,2013-06-14 13:58:00,
2013-06-14 07:03:00,81.6,48.0,29.68,South,191,4.0,4.0,31,0.00,,,0.00,LWC V2.00 B727,2013-06-14 14:03:00,
2013-06-14 07:08:00,81.8,48.2,29.68,South,191,4.0,4.0,31,0.00,,,0.00,LWC V2.00 B727,2013-06-14 14:08:00,
2013-06-14 07:13:00,82.0,48.4,29.68,South,191,4.0,4.0,31,0.00,,,0.00,LWC V2.00 B727,2013-06-14 14:13:00,
2013-06-14 07:18:00,82.2,48.5,29.68,South,191,3.0,4.0,31,0.00,,,0.00,LWC V2.00 B727,2013-06-14 14:18:00,
2013-06-14 07:23:00,82.6,48.9,29.68,South,191,0.0,0.0,31,0.00,,,0.00,LWC V2.00 B727,2013-06-14 14:23:00,
2013-06-14 07:28:00,83.2,47.6,29.68,South,191,0.0,0.0,29,0.00,,,0.00,LWC V2.00 B727,2013-06-14 14:28:00,
2013-06-14 07:33:00,83.8,48.1,29.68,South,180,0.0,1.0,29,0.00,,,0.00,LWC V2.00 B727,2013-06-14 14:33:00,
2013-06-14 07:38:00,84.3,47.6,29.68,South,180,0.0,0.0,28,0.00,,,0.00,LWC V2.00 B727,2013-06-14 14:38:00,
2013-06-14 07:43:00,84.7,47.0,29.68,South,180,0.0,0.0,27,0.00,,,0.00,LWC V2.00 B727,2013-06-14 14:43:00,
2013-06-14 07:48:00,85.1,47.3,29.68,South,180,0.0,0.0,27,0.00,,,0.00,LWC V2.00 B727,2013-06-14 14:48:00,
2013-06-14 07:53:00,85.5,48.6,29.69,South,180,0.0,0.0,28,0.00,,,0.00,LWC V2.00 B727,2013-06-14 14:53:00,
2013-06-14 07:58:00,85.9,49.0,29.69,South,179,0.0,0.0,28,0.00,,,0.00,LWC V2.00 B727,2013-06-14 14:58:00,
2013-06-14 08:03:00,86.3,48.3,29.69,South,179,0.0,1.0,27,0.00,,,0.00,LWC V2.00 B727,2013-06-14 15:03:00,
2013-06-14 08:08:00,86.5,48.5,29.69,North,2,7.0,8.0,27,0.00,,,0.00,LWC V2.00 B727,2013-06-14 15:08:00,
2013-06-14 08:13:00,86.5,48.5,29.69,North,352,0.0,0.0,27,0.00,,,0.00,LWC V2.00 B727,2013-06-14 15:13:00,
2013-06-14 08:18:00,87.0,48.9,29.69,North,355,3.0,8.0,27,0.00,,,0.00,LWC V2.00 B727,2013-06-14 15:18:00,
2013-06-14 08:23:00,87.0,48.9,29.69,North,349,7.0,7.0,27,0.00,,,0.00,LWC V2.00 B727,2013-06-14 15:23:00,
2013-06-14 08:28:00,87.0,48.9,29.69,WNW,290,6.0,8.0,27,0.00,,,0.00,LWC V2.00 B727,2013-06-14 15:28:00,
2013-06-14 08:33:00,87.0,48.9,29.69,WNW,290,7.0,7.0,27,0.00,,,0.00,LWC V2.00 B727,2013-06-14 15:33:00,
2013-06-14 08:38:00,87.2,48.1,29.69,NW,312,4.0,7.0,26,0.00,,,0.00,LWC V2.00 B727,2013-06-14 15:38:00,
2013-06-14 08:43:00,87.4,48.3,29.69,NNW,339,7.0,9.0,26,0.00,,,0.00,LWC V2.00 B727,2013-06-14 15:43:00,
2013-06-14 08:48:00,87.6,48.4,29.69,NW,322,2.0,8.0,26,0.00,,,0.00,LWC V2.00 B727,2013-06-14 15:48:00,
2013-06-14 08:53:00,87.8,48.6,29.69,NW,317,3.0,4.0,26,0.00,,,0.00,LWC V2.00 B727,2013-06-14 15:53:00,
2013-06-14 08:58:00,88.2,47.9,29.69,NW,306,0.0,7.0,25,0.00,,,0.00,LWC V2.00 B727,2013-06-14 15:58:00,
2013-06-14 09:03:00,88.4,48.1,29.69,NNW,341,7.0,7.0,25,0.00,,,0.00,LWC V2.00 B727,2013-06-14 16:03:00,
2013-06-14 09:08:00,88.6,48.2,29.69,NW,318,5.0,9.0,25,0.00,,,0.00,LWC V2.00 B727,2013-06-14 16:08:00,
2013-06-14 09:13:00,88.8,48.4,29.68,WNW,295,5.0,6.0,25,0.00,,,0.00,LWC V2.00 B727,2013-06-14 16:13:00,
2013-06-14 09:18:00,88.8,48.4,29.69,WNW,295,2.0,6.0,25,0.00,,,0.00,LWC V2.00 B727,2013-06-14 16:18:00,
2013-06-14 09:23:00,89.0,46.4,29.68,NNE,27,10.0,11.0,23,0.00,,,0.00,LWC V2.00 B727,2013-06-14 16:23:00,
2013-06-14 09:28:00,89.7,46.9,29.68,North,9,6.0,8.0,23,0.00,,,0.00,LWC V2.00 B727,2013-06-14 16:28:00,
2013-06-14 09:33:00,89.9,47.1,29.68,NNW,348,0.0,9.0,23,0.00,,,0.00,LWC V2.00 B727,2013-06-14 16:33:00,
2013-06-14 09:38:00,90.1,47.3,29.68,North,352,7.0,9.0,23,0.00,,,0.00,LWC V2.00 B727,2013-06-14 16:38:00,
2013-06-14 09:43:00,90.3,46.3,29.68,NNW,330,4.0,9.0,22,0.00,,,0.00,LWC V2.00 B727,2013-06-14 16:43:00,
2013-06-14 09:48:00,90.3,45.0,29.68,NW,311,0.0,4.0,21,0.00,,,0.00,LWC V2.00 B727,2013-06-14 16:48:00,
2013-06-14 09:53:00,90.3,47.4,29.68,NW,322,3.0,8.0,23,0.00,,,0.00,LWC V2.00 B727,2013-06-14 16:53:00,
2013-06-14 09:58:00,91.0,48.0,29.68,NW,316,4.0,12.0,23,0.00,,,0.00,LWC V2.00 B727,2013-06-14 16:58:00,
2013-06-14 10:03:00,91.0,48.0,29.68,North,1,8.0,10.0,23,0.00,,,0.00,LWC V2.00 B727,2013-06-14 17:03:00,
2013-06-14 10:08:00,91.6,48.5,29.68,North,3,4.0,8.0,23,0.00,,,0.00,LWC V2.00 B727,2013-06-14 17:08:00,
2013-06-14 10:13:00,91.6,47.3,29.68,WNW,290,0.0,5.0,22,0.00,,,0.00,LWC V2.00 B727,2013-06-14 17:13:00,
2013-06-14 10:18:00,91.4,47.2,29.68,NW,319,4.0,7.0,22,0.00,,,0.00,LWC V2.00 B727,2013-06-14 17:18:00,
2013-06-14 10:23:00,91.8,47.5,29.68,WNW,285,2.0,7.0,22,0.00,,,0.00,LWC V2.00 B727,2013-06-14 17:23:00,
2013-06-14 10:28:00,91.6,47.3,29.67,West,274,1.0,7.0,22,0.00,,,0.00,LWC V2.00 B727,2013-06-14 17:28:00,
2013-06-14 10:33:00,91.2,48.2,29.67,WNW,295,3.0,7.0,23,0.00,,,0.00,LWC V2.00 B727,2013-06-14 17:33:00,
2013-06-14 10:38:00,91.8,47.5,29.67,NW,319,4.0,10.0,22,0.00,,,0.00,LWC V2.00 B727,2013-06-14 17:38:00,
2013-06-14 10:43:00,92.3,47.9,29.67,WNW,285,7.0,7.0,22,0.00,,,0.00,LWC V2.00 B727,2013-06-14 17:43:00,
2013-06-14 10:48:00,93.2,47.4,29.67,NW,307,12.0,16.0,21,0.00,,,0.00,LWC V2.00 B727,2013-06-14 17:48:00,
2013-06-14 10:53:00,92.7,48.2,29.67,NW,307,0.0,4.0,22,0.00,,,0.00,LWC V2.00 B727,2013-06-14 17:53:00,
2013-06-14 10:58:00,92.7,48.2,29.67,NW,307,0.0,0.0,22,0.00,,,0.00,LWC V2.00 B727,2013-06-14 17:58:00,
2013-06-14 11:03:00,93.4,47.6,29.67,NNW,335,7.0,7.0,21,0.00,,,0.00,LWC V2.00 B727,2013-06-14 18:03:00,
2013-06-14 11:08:00,94.0,46.8,29.67,NNW,328,9.0,11.0,20,0.00,,,0.00,LWC V2.00 B727,2013-06-14 18:08:00,
2013-06-14 11:13:00,93.4,47.6,29.67,WNW,290,6.0,12.0,21,0.00,,,0.00,LWC V2.00 B727,2013-06-14 18:13:00,
2013-06-14 11:18:00,93.4,47.6,29.67,NNW,343,8.0,8.0,21,0.00,,,0.00,LWC V2.00 B727,2013-06-14 18:18:00,
2013-06-14 11:23:00,94.0,46.8,29.67,WNW,290,7.0,16.0,20,0.00,,,0.00,LWC V2.00 B727,2013-06-14 18:23:00,
2013-06-14 11:28:00,93.8,46.6,29.66,WNW,285,7.0,11.0,20,0.00,,,0.00,LWC V2.00 B727,2013-06-14 18:28:00,
2013-06-14 11:33:00,94.0,46.8,29.66,NW,324,3.0,11.0,20,0.00,,,0.00,LWC V2.00 B727,2013-06-14 18:33:00,
2013-06-14 11:38:00,94.3,47.0,29.66,WNW,299,12.0,14.0,20,0.00,,,0.00,LWC V2.00 B727,2013-06-14 18:38:00,
2013-06-14 11:43:00,94.3,47.0,29.66,NW,324,10.0,12.0,20,0.00,,,0.00,LWC V2.00 B727,2013-06-14 18:43:00,
2013-06-14 11:48:00,94.3,47.0,29.66,NNW,346,11.0,14.0,20,0.00,,,0.00,LWC V2.00 B727,2013-06-14 18:48:00,
2013-06-14 11:53:00,94.5,45.8,29.66,NW,318,2.0,6.0,19,0.00,,,0.00,LWC V2.00 B727,2013-06-14 18:53:00,
2013-06-14 11:58:00,94.3,45.7,29.66,WSW,245,7.0,10.0,19,0.00,,,0.00,LWC V2.00 B727,2013-06-14 18:58:00,
2013-06-14 12:03:00,95.1,46.3,29.65,NNW,346,4.0,10.0,19,0.00,,,0.00,LWC V2.00 B727,2013-06-14 19:03:00,
2013-06-14 12:08:00,95.4,46.5,29.65,NW,311,9.0,13.0,19,0.00,,,0.00,LWC V2.00 B727,2013-06-14 19:08:00,
2013-06-14 12:13:00,95.1,46.3,29.65,WNW,295,4.0,9.0,19,0.00,,,0.00,LWC V2.00 B727,2013-06-14 19:13:00,
2013-06-14 12:18:00,94.9,46.1,29.65,NW,318,6.0,12.0,19,0.00,,,0.00,LWC V2.00 B727,2013-06-14 19:18:00,
2013-06-14 12:23:00,95.4,45.1,29.65,North,7,7.0,10.0,18,0.00,,,0.00,LWC V2.00 B727,2013-06-14 19:23:00,
2013-06-14 12:28:00,95.9,45.5,29.65,West,279,10.0,17.0,18,0.00,,,0.00,LWC V2.00 B727,2013-06-14 19:28:00,
2013-06-14 12:33:00,95.6,46.7,29.64,WNW,303,10.0,15.0,19,0.00,,,0.00,LWC V2.00 B727,2013-06-14 19:33:00,
2013-06-14 12:38:00,95.9,45.5,29.64,North,6,3.0,14.0,18,0.00,,,0.00,LWC V2.00 B727,2013-06-14 19:38:00,
2013-06-14 12:43:00,96.3,45.8,29.64,WNW,299,9.0,15.0,18,0.00,,,0.00,LWC V2.00 B727,2013-06-14 19:43:00,
2013-06-14 12:48:00,96.6,44.6,29.64,NW,311,15.0,16.0,17,0.00,,,0.00,LWC V2.00 B727,2013-06-14 19:48:00,
2013-06-14 12:53:00,96.8,44.7,29.64,North,9,5.0,9.0,17,0.00,,,0.00,LWC V2.00 B727,2013-06-14 19:53:00,
2013-06-14 12:58:00,96.6,44.6,29.64,WNW,295,3.0,7.0,17,0.00,,,0.00,LWC V2.00 B727,2013-06-14 19:58:00,
2013-06-14 13:03:00,96.6,44.6,29.64,NNW,332,11.0,13.0,17,0.00,,,0.00,LWC V2.00 B727,2013-06-14 20:03:00,
2013-06-14 13:08:00,96.3,44.3,29.63,NNW,347,5.0,16.0,17,0.00,,,0.00,LWC V2.00 B727,2013-06-14 20:08:00,
2013-06-14 13:13:00,97.1,50.6,29.63,WNW,290,12.0,15.0,21,0.00,,,0.00,LWC V2.00 B727,2013-06-14 20:13:00,
2013-06-14 13:18:00,97.3,45.1,29.63,WNW,285,9.0,11.0,17,0.00,,,0.00,LWC V2.00 B727,2013-06-14 20:18:00,
2013-06-14 13:23:00,97.3,45.1,29.63,NW,320,11.0,11.0,17,0.00,,,0.00,LWC V2.00 B727,2013-06-14 20:23:00,
2013-06-14 13:28:00,97.1,45.0,29.63,NW,307,3.0,4.0,17,0.00,,,0.00,LWC V2.00 B727,2013-06-14 20:28:00,
2013-06-14 13:33:00,97.5,45.3,29.62,NW,314,5.0,13.0,17,0.00,,,0.00,LWC V2.00 B727,2013-06-14 20:33:00,
2013-06-14 13:38:00,97.5,45.3,29.62,North,354,4.0,17.0,17,0.00,,,0.00,LWC V2.00 B727,2013-06-14 20:38:00,
2013-06-14 13:43:00,98.2,44.3,29.62,NW,309,16.0,16.0,16,0.00,,,0.00,LWC V2.00 B727,2013-06-14 20:43:00,
2013-06-14 13:48:00,98.0,44.1,29.61,NNW,339,8.0,12.0,16,0.00,,,0.00,LWC V2.00 B727,2013-06-14 20:48:00,
2013-06-14 13:53:00,98.2,44.3,29.61,NW,318,9.0,12.0,16,0.00,,,0.00,LWC V2.00 B727,2013-06-14 20:53:00,
2013-06-14 13:58:00,97.8,44.0,29.61,WNW,295,5.0,12.0,16,0.00,,,0.00,LWC V2.00 B727,2013-06-14 20:58:00,
2013-06-14 14:03:00,97.3,43.6,29.61,WNW,285,8.0,10.0,16,0.00,,,0.00,LWC V2.00 B727,2013-06-14 21:03:00,
2013-06-14 14:08:00,98.2,44.3,29.61,NW,304,14.0,14.0,16,0.00,,,0.00,LWC V2.00 B727,2013-06-14 21:08:00,
2013-06-14 14:13:00,98.5,44.5,29.61,NW,304,15.0,16.0,16,0.00,,,0.00,LWC V2.00 B727,2013-06-14 21:13:00,
2013-06-14 14:18:00,98.0,44.1,29.61,NNW,336,10.0,15.0,16,0.00,,,0.00,LWC V2.00 B727,2013-06-14 21:18:00,
2013-06-14 14:23:00,97.8,44.0,29.60,NW,304,9.0,12.0,16,0.00,,,0.00,LWC V2.00 B727,2013-06-14 21:23:00,
2013-06-14 14:28:00,97.5,43.7,29.60,WNW,295,5.0,5.0,16,0.00,,,0.00,LWC V2.00 B727,2013-06-14 21:28:00,
2013-06-14 14:33:00,97.3,43.6,29.60,NNW,339,14.0,17.0,16,0.00,,,0.00,LWC V2.00 B727,2013-06-14 21:33:00,
2013-06-14 14:36:00,97.8,44.0,29.60,NW,319,15.0,20.0,16,0.00,,,0.00,LWC V2.00 B727,2013-06-14 21:36:00,
2013-06-14 14:41:00,97.5,46.8,29.60,WNW,299,5.0,7.0,18,0.00,,,0.00,LWC V2.00 B727,2013-06-14 21:41:00,
2013-06-14 14:46:00,98.0,44.1,29.59,NNW,345,13.0,13.0,16,0.00,,,0.00,LWC V2.00 B727,2013-06-14 21:46:00,
2013-06-14 14:51:00,98.5,42.8,29.59,NW,318,6.0,6.0,15,0.00,,,0.00,LWC V2.00 B727,2013-06-14 21:51:00,
2013-06-14 14:56:00,99.2,43.4,29.59,NNW,329,11.0,18.0,15,0.00,,,0.00,LWC V2.00 B727,2013-06-14 21:56:00,
2013-06-14 15:01:00,99.2,43.4,29.59,North,353,11.0,16.0,15,0.00,,,0.00,LWC V2.00 B727,2013-06-14 22:01:00,
2013-06-14 15:06:00,99.2,43.4,29.58,NNE,26,7.0,12.0,15,0.00,,,0.00,LWC V2.00 B727,2013-06-14 22:06:00,
2013-06-14 15:11:00,99.4,41.7,29.58,North,0,7.0,10.0,14,0.00,,,0.00,LWC V2.00 B727,2013-06-14 22:11:00,
2013-06-14 15:16:00,99.2,41.6,29.58,North,351,2.0,8.0,14,0.00,,,0.00,LWC V2.00 B727,2013-06-14 22:16:00,
2013-06-14 15:21:00,98.7,43.0,29.57,NW,322,13.0,15.0,15,0.00,,,0.00,LWC V2.00 B727,2013-06-14 22:21:00,
2013-06-14 15:26:00,98.7,43.0,29.58,West,262,7.0,7.0,15,0.00,,,0.00,LWC V2.00 B727,2013-06-14 22:26:00,
2013-06-14 15:31:00,98.5,41.0,29.59,WNW,285,7.0,18.0,14,0.00,,,0.00,LWC V2.00 B727,2013-06-14 22:31:00,
2013-06-14 15:36:00,98.2,40.8,29.58,WNW,290,5.0,10.0,14,0.00,,,0.00,LWC V2.00 B727,2013-06-14 22:36:00,
2013-06-14 15:41:00,98.7,41.2,29.58,NNW,347,5.0,9.0,14,0.00,,,0.00,LWC V2.00 B727,2013-06-14 22:41:00,
2013-06-14 15:46:00,99.0,39.5,29.58,WNW,295,7.0,13.0,13,0.00,,,0.00,LWC V2.00 B727,2013-06-14 22:46:00,
2013-06-14 15:51:00,98.5,41.0,29.58,West,268,0.0,9.0,14,0.00,,,0.00,LWC V2.00 B727,2013-06-14 22:51:00,
2013-06-14 15:56:00,99.0,41.4,29.57,NW,313,12.0,14.0,14,0.00,,,0.00,LWC V2.00 B727,2013-06-14 22:56:00,
2013-06-14 16:01:00,99.0,41.4,29.57,NW,326,9.0,14.0,14,0.00,,,0.00,LWC V2.00 B727,2013-06-14 23:01:00,
2013-06-14 16:06:00,99.0,39.5,29.57,NNW,327,4.0,8.0,13,0.00,,,0.00,LWC V2.00 B727,2013-06-14 23:06:00,
2013-06-14 16:11:00,98.5,41.0,29.57,NW,307,7.0,13.0,14,0.00,,,0.00,LWC V2.00 B727,2013-06-14 23:11:00,
2013-06-14 16:16:00,98.7,39.3,29.55,North,350,7.0,13.0,13,0.00,,,0.00,LWC V2.00 B727,2013-06-14 23:16:00,
2013-06-14 16:21:00,98.7,41.2,29.57,NNW,332,8.0,9.0,14,0.00,,,0.00,LWC V2.00 B727,2013-06-14 23:21:00,
2013-06-14 16:26:00,99.0,41.4,29.57,NNE,22,10.0,11.0,14,0.00,,,0.00,LWC V2.00 B727,2013-06-14 23:26:00,
2013-06-14 16:31:00,98.7,41.2,29.57,ENE,77,3.0,15.0,14,0.00,,,0.00,LWC V2.00 B727,2013-06-14 23:31:00,
2013-06-14 16:36:00,98.7,41.2,29.57,NNW,345,8.0,13.0,14,0.00,,,0.00,LWC V2.00 B727,2013-06-14 23:36:00,
2013-06-14 16:41:00,98.5,41.0,29.57,NNW,340,7.0,12.0,14,0.00,,,0.00,LWC V2.00 B727,2013-06-14 23:41:00,
2013-06-14 16:46:00,98.2,40.8,29.57,NNW,334,1.0,9.0,14,0.00,,,0.00,LWC V2.00 B727,2013-06-14 23:46:00,
2013-06-14 16:51:00,98.7,41.2,29.57,North,355,7.0,11.0,14,0.00,,,0.00,LWC V2.00 B727,2013-06-14 23:51:00,
2013-06-14 16:56:00,98.7,41.2,29.56,North,352,9.0,14.0,14,0.00,,,0.00,LWC V2.00 B727,2013-06-14 23:56:00,
2013-06-14 17:01:00,98.7,41.2,29.56,NNW,328,12.0,15.0,14,0.00,,,0.00,LWC V2.00 B727,2013-06-15 00:01:00,
2013-06-14 17:06:00,98.5,41.0,29.56,NNW,341,6.0,12.0,14,0.00,,,0.00,LWC V2.00 B727,2013-06-15 00:06:00,
2013-06-14 17:11:00,98.5,41.0,29.57,NNW,332,2.0,7.0,14,0.00,,,0.00,LWC V2.00 B727,2013-06-15 00:11:00,
2013-06-14 17:16:00,98.2,40.8,29.57,North,4,3.0,8.0,14,0.00,,,0.00,LWC V2.00 B727,2013-06-15 00:16:00,
2013-06-14 17:21:00,98.2,40.8,29.56,NNE,24,13.0,19.0,14,0.00,,,0.00,LWC V2.00 B727,2013-06-15 00:21:00,
2013-06-14 17:26:00,97.8,40.5,29.56,North,1,8.0,15.0,14,0.00,,,0.00,LWC V2.00 B727,2013-06-15 00:26:00,
2013-06-14 17:31:00,97.8,40.5,29.57,North,357,2.0,7.0,14,0.00,,,0.00,LWC V2.00 B727,2013-06-15 00:31:00,
2013-06-14 17:36:00,97.8,40.5,29.57,North,10,3.0,8.0,14,0.00,,,0.00,LWC V2.00 B727,2013-06-15 00:36:00,
2013-06-14 17:41:00,98.0,40.6,29.56,ENE,59,9.0,12.0,14,0.00,,,0.00,LWC V2.00 B727,2013-06-15 00:41:00,
2013-06-14 17:46:00,98.0,40.6,29.56,NW,316,6.0,7.0,14,0.00,,,0.00,LWC V2.00 B727,2013-06-15 00:46:00,
2013-06-14 17:51:00,97.8,40.5,29.56,North,354,8.0,9.0,14,0.00,,,0.00,LWC V2.00 B727,2013-06-15 00:51:00,
2013-06-14 17:56:00,97.5,40.2,29.56,NE,52,4.0,10.0,14,0.00,,,0.00,LWC V2.00 B727,2013-06-15 00:56:00,
2013-06-14 18:01:00,97.3,40.1,29.56,NNE,20,6.0,16.0,14,0.00,,,0.00,LWC V2.00 B727,2013-06-15 01:01:00,
2013-06-14 18:06:00,96.8,39.7,29.56,NNE,16,7.0,18.0,14,0.00,,,0.00,LWC V2.00 B727,2013-06-15 01:06:00,
2013-06-14 18:11:00,96.8,39.7,29.56,NNE,14,17.0,17.0,14,0.00,,,0.00,LWC V2.00 B727,2013-06-15 01:11:00,
2013-06-14 18:16:00,96.3,39.3,29.56,NNE,18,7.0,12.0,14,0.00,,,0.00,LWC V2.00 B727,2013-06-15 01:16:00,
2013-06-14 18:21:00,96.3,39.3,29.56,North,353,11.0,14.0,14,0.00,,,0.00,LWC V2.00 B727,2013-06-15 01:21:00,
2013-06-14 18:26:00,96.1,39.2,29.55,NNW,348,9.0,10.0,14,0.00,,,0.00,LWC V2.00 B727,2013-06-15 01:26:00,
2013-06-14 18:31:00,96.1,39.2,29.56,NNW,336,7.0,13.0,14,0.00,,,0.00,LWC V2.00 B727,2013-06-15 01:31:00,
2013-06-14 18:36:00,95.9,39.0,29.56,North,355,10.0,12.0,14,0.00,,,0.00,LWC V2.00 B727,2013-06-15 01:36:00,
2013-06-14 18:41:00,95.9,39.0,29.56,North,1,5.0,10.0,14,0.00,,,0.00,LWC V2.00 B727,2013-06-15 01:41:00,
2013-06-14 18:46:00,95.4,38.6,29.56,NNE,31,8.0,9.0,14,0.00,,,0.00,LWC V2.00 B727,2013-06-15 01:46:00,
2013-06-14 18:51:00,95.1,38.4,29.56,North,7,5.0,8.0,14,0.00,,,0.00,LWC V2.00 B727,2013-06-15 01:51:00,
2013-06-14 18:56:00,94.9,38.2,29.57,North,10,3.0,6.0,14,0.00,,,0.00,LWC V2.00 B727,2013-06-15 01:56:00,
2013-06-14 19:01:00,94.7,38.1,29.57,NNE,22,8.0,9.0,14,0.00,,,0.00,LWC V2.00 B727,2013-06-15 02:01:00,
2013-06-14 19:06:00,94.5,37.9,29.57,NNE,23,6.0,8.0,14,0.00,,,0.00,LWC V2.00 B727,2013-06-15 02:06:00,
2013-06-14 19:11:00,94.3,37.7,29.57,NNE,32,4.0,7.0,14,0.00,,,0.00,LWC V2.00 B727,2013-06-15 02:11:00,
2013-06-14 19:16:00,93.8,37.4,29.57,NNE,29,6.0,10.0,14,0.00,,,0.00,LWC V2.00 B727,2013-06-15 02:16:00,
2013-06-14 19:21:00,93.4,37.0,29.57,North,10,5.0,7.0,14,0.00,,,0.00,LWC V2.00 B727,2013-06-15 02:21:00,
2013-06-14 19:26:00,93.2,38.6,29.58,NE,44,3.0,8.0,15,0.00,,,0.00,LWC V2.00 B727,2013-06-15 02:26:00,
2013-06-14 19:31:00,92.7,38.2,29.58,NE,43,0.0,3.0,15,0.00,,,0.00,LWC V2.00 B727,2013-06-15 02:31:00,
2013-06-14 19:36:00,92.3,37.9,29.58,NE,47,0.0,4.0,15,0.00,,,0.00,LWC V2.00 B727,2013-06-15 02:36:00,
2013-06-14 19:41:00,91.8,37.5,29.58,NE,47,0.0,0.0,15,0.00,,,0.00,LWC V2.00 B727,2013-06-15 02:41:00,
2013-06-14 19:46:00,91.6,37.4,29.58,NE,47,0.0,0.0,15,0.00,,,0.00,LWC V2.00 B727,2013-06-15 02:46:00,
2013-06-14 19:51:00,91.2,37.1,29.58,NE,51,0.0,0.0,15,0.00,,,0.00,LWC V2.00 B727,2013-06-15 02:51:00,
2013-06-14 19:56:00,90.7,36.7,29.58,NE,54,0.0,3.0,15,0.00,,,0.00,LWC V2.00 B727,2013-06-15 02:56:00,
2013-06-14 20:01:00,90.3,36.3,29.58,NE,55,0.0,0.0,15,0.00,,,0.00,LWC V2.00 B727,2013-06-15 03:01:00,
2013-06-14 20:06:00,89.9,37.7,29.58,ENE,77,2.0,6.0,16,0.00,,,0.00,LWC V2.00 B727,2013-06-15 03:06:00,
2013-06-14 20:11:00,89.5,37.4,29.59,ENE,70,4.0,7.0,16,0.00,,,0.00,LWC V2.00 B727,2013-06-15 03:11:00,
2013-06-14 20:16:00,89.3,37.2,29.59,ENE,70,4.0,6.0,16,0.00,,,0.00,LWC V2.00 B727,2013-06-15 03:16:00,
2013-06-14 20:21:00,88.8,36.8,29.59,ENE,70,5.0,5.0,16,0.00,,,0.00,LWC V2.00 B727,2013-06-15 03:21:00,
2013-06-14 20:26:00,88.6,36.6,29.59,ENE,72,3.0,5.0,16,0.00,,,0.00,LWC V2.00 B727,2013-06-15 03:26:00,
2013-06-14 20:31:00,88.2,36.3,29.59,ENE,73,4.0,5.0,16,0.00,,,0.00,LWC V2.00 B727,2013-06-15 03:31:00,
2013-06-14 20:36:00,87.8,37.5,29.60,ENE,76,0.0,0.0,17,0.00,,,0.00,LWC V2.00 B727,2013-06-15 03:36:00,
2013-06-14 20:41:00,87.4,37.2,29.60,East,83,0.0,2.0,17,0.00,,,0.00,LWC V2.00 B727,2013-06-15 03:41:00,
2013-06-14 20:46:00,87.0,36.9,29.60,East,87,4.0,4.0,17,0.00,,,0.00,LWC V2.00 B727,2013-06-15 03:46:00,
2013-06-14 20:51:00,87.0,36.9,29.60,ESE,112,5.0,7.0,17,0.00,,,0.00,LWC V2.00 B727,2013-06-15 03:51:00,
2013-06-14 20:56:00,87.2,35.5,29.60,ESE,114,0.0,3.0,16,0.00,,,0.00,LWC V2.00 B727,2013-06-15 03:56:00,
2013-06-14 21:01:00,87.2,35.5,29.61,ESE,114,0.0,4.0,16,0.00,,,0.00,LWC V2.00 B727,2013-06-15 04:01:00,
2013-06-14 21:06:00,87.2,35.5,29.61,ESE,114,0.0,1.0,16,0.00,,,0.00,LWC V2.00 B727,2013-06-15 04:06:00,
2013-06-14 21:11:00,87.2,35.5,29.62,ESE,114,0.0,4.0,16,0.00,,,0.00,LWC V2.00 B727,2013-06-15 04:11:00,
2013-06-14 21:16:00,87.0,35.4,29.62,ESE,115,0.0,2.0,16,0.00,,,0.00,LWC V2.00 B727,2013-06-15 04:16:00,
2013-06-14 21:21:00,86.7,35.1,29.62,ESE,115,0.0,0.0,16,0.00,,,0.00,LWC V2.00 B727,2013-06-15 04:21:00,
2013-06-14 21:26:00,86.7,35.1,29.62,ESE,115,0.0,0.0,16,0.00,,,0.00,LWC V2.00 B727,2013-06-15 04:26:00,
2013-06-14 21:31:00,86.5,35.0,29.62,ESE,115,0.0,0.0,16,0.00,,,0.00,LWC V2.00 B727,2013-06-15 04:31:00,
2013-06-14 21:36:00,86.5,35.0,29.63,ESE,115,0.0,0.0,16,0.00,,,0.00,LWC V2.00 B727,2013-06-15 04:36:00,
2013-06-14 21:41:00,86.5,35.0,29.63,ESE,115,0.0,0.0,16,0.00,,,0.00,LWC V2.00 B727,2013-06-15 04:41:00,
2013-06-14 21:46:00,86.5,35.0,29.63,ESE,115,0.0,0.0,16,0.00,,,0.00,LWC V2.00 B727,2013-06-15 04:46:00,
2013-06-14 21:51:00,86.5,35.0,29.63,ESE,115,0.0,0.0,16,0.00,,,0.00,LWC V2.00 B727,2013-06-15 04:51:00,
2013-06-14 21:56:00,86.7,35.1,29.63,ESE,115,0.0,1.0,16,0.00,,,0.00,LWC V2.00 B727,2013-06-15 04:56:00,
2013-06-14 22:01:00,86.7,35.1,29.63,ESE,115,0.0,0.0,16,0.00,,,0.00,LWC V2.00 B727,2013-06-15 05:01:00,
2013-06-14 22:06:00,86.7,35.1,29.63,ESE,115,0.0,0.0,16,0.00,,,0.00,LWC V2.00 B727,2013-06-15 05:06:00,
2013-06-14 22:11:00,86.7,35.1,29.63,ESE,115,0.0,0.0,16,0.00,,,0.00,LWC V2.00 B727,2013-06-15 05:11:00,
2013-06-14 22:16:00,86.7,35.1,29.64,ESE,115,0.0,0.0,16,0.00,,,0.00,LWC V2.00 B727,2013-06-15 05:16:00,
2013-06-14 22:21:00,86.5,36.5,29.63,ESE,115,0.0,0.0,17,0.00,,,0.00,LWC V2.00 B727,2013-06-15 05:21:00,
2013-06-14 22:26:00,86.3,34.8,29.63,ESE,115,0.0,0.0,16,0.00,,,0.00,LWC V2.00 B727,2013-06-15 05:26:00,
2013-06-14 22:31:00,86.3,34.8,29.64,ESE,115,0.0,0.0,16,0.00,,,0.00,LWC V2.00 B727,2013-06-15 05:31:00,
2013-06-14 22:36:00,86.3,36.3,29.64,ESE,115,0.0,0.0,17,0.00,,,0.00,LWC V2.00 B727,2013-06-15 05:36:00,
2013-06-14 22:41:00,86.1,36.2,29.64,ESE,115,0.0,0.0,17,0.00,,,0.00,LWC V2.00 B727,2013-06-15 05:41:00,
2013-06-14 22:46:00,85.7,35.8,29.64,ESE,115,0.0,0.0,17,0.00,,,0.00,LWC V2.00 B727,2013-06-15 05:46:00,
2013-06-14 22:51:00,85.5,35.7,29.64,ESE,115,0.0,0.0,17,0.00,,,0.00,LWC V2.00 B727,2013-06-15 05:51:00,
2013-06-14 22:56:00,85.5,35.7,29.64,ESE,115,0.0,0.0,17,0.00,,,0.00,LWC V2.00 B727,2013-06-15 05:56:00,
2013-06-14 23:00:00,85.3,35.5,29.64,NW,312,9.0,13.0,17,0.00,,,0.00,LWC V2.00 B727,2013-06-15 06:00:00,
2013-06-14 23:05:00,84.3,37.5,29.64,NW,325,0.0,0.0,19,0.00,,,0.00,LWC V2.00 B727,2013-06-15 06:05:00,
2013-06-14 23:10:00,83.8,35.8,29.64,NW,325,0.0,0.0,18,0.00,,,0.00,LWC V2.00 B727,2013-06-15 06:10:00,
2013-06-14 23:15:00,83.6,35.6,29.65,NW,314,1.0,5.0,18,0.00,,,0.00,LWC V2.00 B727,2013-06-15 06:15:00,
2013-06-14 23:20:00,83.4,36.8,29.64,West,267,7.0,9.0,19,0.00,,,0.00,LWC V2.00 B727,2013-06-15 06:20:00,
2013-06-14 23:25:00,83.2,36.6,29.65,WSW,257,7.0,8.0,19,0.00,,,0.00,LWC V2.00 B727,2013-06-15 06:25:00,
2013-06-14 23:30:00,82.6,37.4,29.65,WSW,249,6.0,10.0,20,0.00,,,0.00,LWC V2.00 B727,2013-06-15 06:30:00,
2013-06-14 23:35:00,82.4,37.3,29.65,WSW,237,7.0,10.0,20,0.00,,,0.00,LWC V2.00 B727,2013-06-15 06:35:00,
2013-06-14 23:40:00,82.2,38.4,29.65,WSW,242,6.0,9.0,21,0.00,,,0.00,LWC V2.00 B727,2013-06-15 06:40:00,
2013-06-14 23:45:00,82.2,38.4,29.65,WSW,242,6.0,9.0,21,0.00,,,0.00,LWC V2.00 B727,2013-06-15 06:45:00,
2013-06-14 23:50:00,82.2,37.1,29.65,WSW,247,7.0,8.0,20,0.00,,,0.00,LWC V2.00 B727,2013-06-15 06:50:00,
2013-06-14 23:55:00,82.2,38.4,29.66,West,266,5.0,9.0,21,0.00,,,0.00,LWC V2.00 B727,2013-06-15 06:55:00,